Location: City of Westminster
(51.5000°N, 0.1167°W)
Time: 10:22:40
(UTC+00:00)

Daily predictions for brighter satellites

Satellite Brightness Start Highest point End
(mag) Time Altitude Azimuth Time Altitude Azimuth Time Altitude Azimuth
SMAP 3.6 16:26:11 10° SE 16:30:26 36° ENE 16:34:43 10° N
CZ-2C R/B 2.9 16:27:40 10° SSE 16:32:29 62° ENE 16:37:12 10° N
Cosmos 1898 Rocket 3.8 16:27:30 10° NNW 16:32:35 46° ENE 16:37:37 10° SE
Cosmos 44 3.6 16:28:15 10° NW 16:33:05 69° SW 16:37:36 10° SSE
Cosmos 1461 3.8 16:29:45 10° WSW 16:33:43 40° NW 16:37:34 10° NNE
Sich 1 4.2 16:30:41 10° NNE 16:33:58 21° ENE 16:37:15 10° ESE
Okean 3 Rocket 4.0 16:32:27 10° NNW 16:36:58 70° W 16:41:25 10° S
Cosmos 2360 Rocket 4.0 16:34:36 10° N 16:37:01 13° NNE 16:39:26 10° NE
Cosmos 1842 Rocket 3.9 16:35:45 10° SSE 16:40:02 49° E 16:44:23 10° NNE
Cosmos 2221 2.6 16:35:57 10° S 16:40:07 55° E 16:44:20 10° NNE
Cosmos 1513 Rocket 4.5 16:34:29 10° S 16:40:34 72° E 16:46:47 10° NNE
SL-08 R/B 3.3 16:39:54 10° NNE 16:44:38 66° ESE 16:49:15 10° S
Cosmos 2084 3.5 16:44:58 10° NW 16:49:15 85° SW 16:53:42 10° SE
deb Kosmos-1763 3.9 16:45:57 10° SSW 16:49:21 81° WNW 16:52:48 10° NNE
Cosmos 1656 3.9 16:44:15 10° NNW 16:49:47 78° WSW 16:55:23 10° SSE
AQUARIUS 4.4 16:49:40 10° SE 16:53:59 48° ENE 16:58:19 10° N
NOSS 2-1 (E) 3.5 16:51:30 10° WSW 16:54:39 48° NW 16:58:03 10° NE
MOS 1 Rocket 4.2 16:50:26 10° N 16:55:25 53° WNW 17:00:05 10° SW
FengYun 1-2 T 4.2 16:49:53 10° SSE 16:55:27 74° ENE 17:01:00 10° NNW
NOSS 2-2 (C) 4.2 16:50:59 10° NW 16:55:37 55° NE 17:02:00 10° ESE
H-2A R/B 2.5 16:51:49 10° SE 16:56:28 36° ENE 17:01:02 10° N
Cosmos 2034 Rocket 4.0 16:50:55 10° S 16:56:56 61° E 17:03:01 10° NNE
Cosmos 1666 4.2 16:54:40 10° NNE 16:57:00 16° ENE 16:59:19 10° ESE
Cosmos 2322 Rocket 3.7 16:53:18 10° NNW 16:57:05 18° NNE 17:00:05 12° ENE
ERBS 2.4 16:53:57 10° WSW 16:57:08 62° NNW 16:59:46 14° NE
USA 306 3.0 16:55:56 10° W 17:00:11 66° N 17:03:44 14° ENE
Cosmos 1697 Rocket 2.6 16:55:30 10° NNW 17:01:09 73° ENE 17:06:45 10° SE
Cosmos 1271 Rocket 3.9 16:58:15 10° SW 17:02:03 44° WNW 17:05:54 10° N
USA 267 3.4 16:58:13 11° ENE 17:04:27 66° SE 17:10:56 10° SW
Cosmos 2369 3.8 16:58:47 10° NNW 17:04:27 56° NE 17:10:04 10° SE
Cosmos 1980 Rocket 2.4 16:59:25 10° NNW 17:04:54 47° NE 17:10:20 10° SE
COSMO-SKYMED 1 4.1 17:05:08 14° ENE 17:06:50 17° E 17:09:46 10° SE
Cosmos 1763 Rocket 3.7 17:03:35 10° S 17:08:29 51° ESE 17:13:26 10° NNE
SL-24 R/B - RUBIN 2 3.7 17:05:15 10° NW 17:09:52 55° NE 17:14:10 10° ESE
Cosmos 1939 Rocket 2.8 17:05:55 10° SSE 17:10:02 83° ENE 17:14:09 10° NNW
Meteor 1-25 Rocket 4.1 17:04:37 10° N 17:10:12 71° ENE 17:15:47 10° SSE
Cosmos 841 Rocket 4.4 17:09:48 10° SSE 17:14:07 28° E 17:17:15 16° NE
Cosmos 1937 Rocket 3.5 17:08:54 10° NNW 17:14:15 69° ENE 17:19:33 10° SSE
SL-16 R/B 3.3 17:10:00 10° NNW 17:14:33 24° NE 17:17:26 16° ENE
H-2A R/B 4.5 17:17:11 11° NNE 17:17:11 11° NNE 17:17:27 10° NNE
Cosmos 1812 4.1 17:13:30 10° SE 17:16:13 19° E 17:16:31 19° E
Cosmos 2237 Rocket 4.4 17:15:57 10° N 17:16:40 10° N 17:17:24 10° N
Cosmos 1633 Rocket 4.0 17:13:39 10° N 17:17:21 26° ENE 17:21:02 10° SE
USA 307 3.0 17:14:14 10° W 17:18:30 64° N 17:21:20 20° ENE
Cosmos 1634 Rocket 4.3 17:12:45 10° SSE 17:18:41 45° E 17:24:40 10° NNE
USA 229 DEB 4.2 17:11:32 10° NW 17:18:48 74° SW 17:26:32 10° SSE
USA 229 4.2 17:11:38 10° NW 17:18:53 75° SW 17:26:37 10° SSE
Cosmos 2082 Rocket 3.1 17:16:52 10° SSE 17:21:35 28° ESE 17:24:28 18° ENE
YAOGAN 1 3.9 17:22:20 19° NE 17:22:20 19° NE 17:25:03 10° NNE
Cosmos 2333 Rocket 4.0 17:19:36 10° NNW 17:22:35 14° NNE 17:24:11 13° NE
Cosmos 2026 Rocket 3.9 17:16:49 10° N 17:22:58 65° ENE 17:29:00 10° SSE
NOAA 6 4.1 17:18:16 10° SSE 17:23:25 83° WSW 17:28:36 10° NNW
SeaSat 1 4.2 17:20:08 10° NNE 17:24:07 25° NW 17:28:05 10° W
Cosmos 2195 Rocket 4.4 17:20:02 10° N 17:26:13 79° E 17:32:25 10° SSE
CZ-4B DEB 4.2 17:22:29 10° SSE 17:28:01 85° ENE 17:33:33 10° NNW
ATLAS 2AS CENTAUR R/B 3.9 17:21:09 10° WNW 17:28:08 35° NNW 17:33:27 15° NE
CORIOLIS 4.2 17:22:43 10° SSE 17:28:08 85° WSW 17:33:37 10° NNW
Cosmos 372 Rocket 4.0 17:23:21 10° NNW 17:28:33 61° ENE 17:33:44 10° SE
Cosmos 1602 3.6 17:25:02 10° N 17:28:54 80° ENE 17:32:46 10° SSE
Cosmos 2278 3.9 17:23:19 10° NNW 17:28:54 51° NE 17:34:26 10° SE
Cosmos 1743 Rocket 3.9 17:26:42 10° NNW 17:31:00 66° W 17:35:17 10° S
Okean O Rocket 2.1 17:27:07 10° SE 17:31:15 39° ENE 17:35:24 10° N
ATLAS CENTAUR R/B 3.2 17:29:27 10° W 17:33:06 25° NNW 17:36:14 13° NNE
SL-16 R/B 4.4 17:32:44 10° NNW 17:34:40 12° NNW 17:36:35 10° N
Meteor 2-14 Rocket 4.3 17:29:03 10° N 17:35:12 74° ENE 17:41:16 10° SSE
Cosmos 1782 3.0 17:33:07 10° S 17:36:58 49° E 17:39:44 18° NNE
Cosmos 1151 Rocket 3.8 17:33:16 10° SSE 17:37:03 30° E 17:38:08 26° ENE
COSMOS 2406 3.3 17:33:25 10° S 17:39:01 57° ESE 17:43:04 19° NE
USA 234 4.0 17:33:37 10° SE 17:39:59 54° SW 17:46:23 10° WNW
COSMOS 2455 3.3 17:35:10 10° S 17:40:46 42° ESE 17:43:55 24° ENE
USA 308 3.0 17:36:44 10° W 17:40:58 61° N 17:42:51 31° ENE
Cosmos 1666 Rocket 3.7 17:38:04 10° N 17:42:26 50° ENE 17:46:44 10° SSE
ARGOS 3.2 17:39:42 10° SE 17:44:59 56° ENE 17:50:16 10° N
Cosmos 1470 Rocket 4.4 17:41:30 10° N 17:45:00 29° ENE 17:45:00 29° ENE
Cosmos 1833 Rocket 2.6 17:39:54 10° SSW 17:45:31 78° ESE 17:49:48 18° NNE
ISS -3.2 17:45:20 10° W 17:48:41 56° SSW 17:50:10 29° SE
NOSS 2-2 (D) 4.3 17:43:59 10° NW 17:48:57 82° SW 17:55:55 10° SE
Cosmos 1328 Rocket 4.4 17:47:29 10° SSE 17:50:52 30° ESE 17:50:52 30° ESE
Cosmos 2219 Rocket 3.9 17:48:53 10° N 17:52:07 15° NNE 17:52:22 15° NNE
CZ-2D R/B 3.4 17:48:44 10° S 17:52:33 72° WSW 17:56:24 10° NNW
PAYLOAD B 4.4 17:49:27 10° SSE 17:55:04 77° WSW 18:00:43 10° NNW
SKYMED 2 3.8 17:53:44 32° NE 17:55:18 46° E 17:59:29 10° S
Lacrosse 5 rocket 1.3 17:51:46 10° WNW 17:55:36 57° NNE 17:56:30 44° ENE
CZ-4 R/B 4.4 17:51:37 10° SSE 17:55:40 58° ENE 17:59:45 10° N
Meteor 2-21 Rocket 4.3 17:50:49 10° N 17:56:58 80° ENE 18:03:03 10° SSE
CZ-4 R/B 3.2 17:59:49 17° NNE 17:59:49 17° NNE 18:00:59 10° N
Cosmos 2298 Rocket 4.4 17:53:48 10° NNW 17:58:52 41° NE 18:00:27 33° E
Landsat 5 4.2 18:00:26 32° ESE 18:00:26 32° ESE 18:03:22 10° SSE
Cosmos 1570 Rocket 4.5 17:56:40 10° S 18:01:27 37° ESE 18:02:05 36° E
ATLAS CENTAUR R/B 2.5 17:53:06 10° SW 18:01:51 73° SSE 18:03:22 41° ENE
CZ-4B R/B 3.1 17:56:31 10° SSE 18:01:57 89° ENE 18:07:19 10° NNW
Cosmos 1500 3.5 17:59:30 10° NNW 18:03:13 65° W 18:06:55 10° S
CZ-2C R/B 2.6 17:59:22 17° NNE 18:03:18 57° E 18:08:23 10° S
SL-08 RB Rocket 3.7 18:00:13 10° SSE 18:04:44 55° ENE 18:09:15 10° N
GEOS 3 Rocket 3.5 18:02:08 25° ESE 18:05:13 69° NE 18:10:24 10° NW
Cosmos 540 Rocket 3.3 18:00:10 10° SSW 18:05:17 86° ESE 18:08:24 24° NNE
Cosmos 1818 3.5 18:01:12 10° NW 18:06:41 63° NE 18:09:03 33° ESE
Meteor 1-11 Rocket 4.1 18:01:27 10° N 18:06:42 40° ENE 18:07:51 36° E
USA 305 2.9 18:04:00 10° WNW 18:08:13 63° N 18:08:56 53° NE
Cosmos 1814 Rocket 4.2 18:04:07 10° S 18:09:07 48° ESE 18:10:09 42° ENE
Cosmos 44 Rocket 3.2 18:05:33 10° NW 18:10:30 62° NE 18:11:46 45° ESE
CZ-4C R/B 2.9 18:03:40 10° NW 18:10:41 89° SW 18:19:02 10° SE
Sich 1 3.9 18:07:47 10° NNW 18:11:56 50° W 18:16:05 10° S
Meteor 1-26 Rocket 4.4 18:06:44 10° SSW 18:12:43 85° WNW 18:18:49 10° NNE
Cosmos 1933 4.3 18:09:51 10° SSW 18:13:46 46° WNW 18:17:36 10° N
Feng Yun 1-1 Rocket 4.3 18:14:54 10° SSE 18:20:48 73° ENE 18:26:40 10° NNW
Cosmos 2360 Rocket 3.1 18:17:57 10° NNW 18:22:14 30° NNE 18:22:14 30° NNE
COSMOS 2428 4.4 18:24:42 10° NNW 18:27:32 17° NNE 18:27:32 17° NNE
deb Chang Zheng 4 4.3 18:24:51 10° S 18:29:05 54° WSW 18:33:20 10° NNW
Cosmos 1666 3.3 18:29:13 10° NNW 18:32:52 53° W 18:36:29 10° S
ERBS 4.2 18:30:34 10° WNW 18:32:20 23° NW 18:32:20 23° NW
Cosmos 2208 Rocket 4.2 18:28:51 10° S 18:33:46 54° ESE 18:33:46 54° ESE
H-2A R/B 3.4 18:31:03 10° SSW 18:35:53 39° W 18:40:38 10° NNW
Cosmos 2150 Rocket 3.8 18:31:42 10° NNW 18:36:52 70° ENE 18:37:02 70° ENE
USA 306 3.2 18:36:04 10° WNW 18:39:44 59° NW 18:39:44 59° NW
Cosmos 2322 Rocket 2.4 18:36:49 10° NNW 18:41:55 53° NNE 18:41:55 53° NNE
COSMO-SKYMED 1 2.9 18:42:21 46° NNW 18:43:26 63° WNW 18:47:43 10° SSW
USA 267 3.4 18:45:34 46° NE 18:47:32 67° NNW 18:53:59 10° W
Cosmos 2279 Rocket 4.2 18:41:59 10° SSW 18:48:11 71° WNW 18:54:24 10° N
Cosmos 1980 Rocket 3.5 18:43:39 10° NW 18:48:51 38° WSW 18:54:00 10° S
Cosmos 2266 Rocket 3.9 18:43:22 10° N 18:49:47 88° E 18:56:13 10° S
Cosmos 1812 3.8 18:47:59 10° SSW 18:51:36 43° WNW 18:51:36 43° WNW
Cosmos 1633 Rocket 4.3 18:51:11 10° NNW 18:55:17 40° W 18:59:22 10° SSW
Cosmos 841 Rocket 4.1 18:50:43 10° SW 18:55:45 51° WNW 18:57:22 37° N
YAOGAN 1 3.9 18:59:29 34° NNW 18:59:29 34° NNW 19:02:02 10° NNW
Cosmos 1125 Rocket 3.5 18:52:37 10° NNW 18:57:26 75° NNW 18:57:26 75° NNW
USA 307 3.9 18:54:23 10° WNW 18:57:22 43° WNW 18:57:22 43° WNW
SL-16 R/B 2.1 18:53:46 10° NNW 18:59:21 85° N 18:59:21 85° N
Cosmos 2237 Rocket 4.4 19:00:12 10° N 19:01:32 13° N 19:01:32 13° N
Meteor 2-15 Rocket 4.3 18:57:46 10° S 19:03:20 73° SSE 19:03:20 73° SSE
Cosmos 2082 Rocket 2.5 18:59:40 10° SW 19:05:18 62° NW 19:06:21 52° N
Okean O Rocket 3.5 19:03:47 10° SSW 19:07:41 29° W 19:11:37 10° NNW
Cosmos 2333 Rocket 3.7 19:03:23 10° NNW 19:06:12 25° N 19:06:12 25° N
ATLAS CENTAUR R/B 4.0 19:10:36 10° NW 19:12:21 15° NNW 19:12:21 15° NNW
NOSS 3-4 (A) 4.3 19:11:50 10° NW 19:17:15 43° N 19:17:15 43° N
NOSS 3-4 (C) 4.3 19:11:56 10° NW 19:17:20 43° N 19:17:20 43° N
ATLAS 2AS CENTAUR R/B 3.7 19:14:12 10° NW 19:20:53 35° N 19:20:53 35° N
ISS -0.3 19:22:51 10° WSW 19:23:10 11° WSW 19:23:10 11° WSW
COSMOS 2455 3.4 19:20:48 10° WSW 19:26:39 51° NW 19:27:05 50° NNW
Cosmos 1833 Rocket 4.3 19:25:19 10° W 19:30:03 27° NW 19:31:31 24° NNW
CZ-4 R/B 4.4 19:35:48 11° NW 19:35:48 11° NW 19:35:58 10° NNW
Lacrosse 5 rocket 3.9 19:30:54 10° WNW 19:32:07 18° WNW 19:32:07 18° WNW
Cosmos 2219 Rocket 4.1 19:32:16 10° NNW 19:34:05 20° NNW 19:34:05 20° NNW
CZ-2C R/B 4.4 19:40:54 19° NNW 19:43:17 27° WNW 19:47:32 10° WSW
Cosmos 2360 Rocket 4.1 20:01:48 10° NW 20:04:00 24° NW 20:04:00 24° NW
Cosmos 2322 Rocket 4.3 20:21:17 10° NW 20:23:46 23° WNW 20:23:46 23° WNW
